CES586 KLAX-ZSPD

Flight info

Callsign CES586
Flight time N/A
Altitude 32000
Route SUMMR2 MCKEY DCT LIBBO DCT BRINY DCT BOARS DCT AMAKR DCT LINUZ DCT NATTE DCT ZANNG DCT 49N140W 52N150W 55N160W/N0492F340 DCT CAMBO DCT EXAMY DCT AAMYY DCT ASPIN DCT AKISU/N0493F360 DCT AGEDI DCT ADGOR R591 ADNAP Y807 LALID Y804 INUBO/N0483F380 Y60 ISAKY Y592 ONIKU A593 LAMEN/K0900F380 A593 DUMET
Aircraft B77W/H-SDE1E2E3FGHIJ2J3J4J5M1RWXY/LB1D1

Departure

Time 2026-04-22 19:55
Airport Los Angeles International Airport (KLAX)

Arrival

Time N/A
Airport Shanghai Pudong International Airport (ZSPD)
Time Latitude Longitude Altitude Speed Heading
2026-04-22 19:32 33.94395 -118.41134 99 ft 0 kts 85°
2026-04-22 19:45 33.94395 -118.41136 99 ft 3 kts 85°
2026-04-22 19:45 33.94393 -118.41168 99 ft 4 kts 84°
2026-04-22 19:45 33.94389 -118.41200 98 ft 4 kts 80°
2026-04-22 19:45 33.94383 -118.41226 99 ft 2 kts 54°
2026-04-22 19:46 33.94374 -118.41235 99 ft 2 kts
2026-04-22 19:46 33.94363 -118.41235 99 ft 2 kts 355°
2026-04-22 19:46 33.94356 -118.41234 97 ft 0 kts 353°
2026-04-22 19:48 33.94357 -118.41234 97 ft 2 kts 353°
2026-04-22 19:48 33.94399 -118.41240 98 ft 7 kts 353°
2026-04-22 19:48 33.94447 -118.41248 100 ft 7 kts 353°
2026-04-22 19:49 33.94496 -118.41255 100 ft 7 kts 353°
2026-04-22 19:49 33.94547 -118.41263 100 ft 9 kts 353°
2026-04-22 19:49 33.94619 -118.41274 102 ft 11 kts 353°
2026-04-22 19:49 33.94694 -118.41285 103 ft 11 kts 353°
2026-04-22 19:50 33.94766 -118.41269 104 ft 11 kts 35°
2026-04-22 19:50 33.94800 -118.41191 107 ft 11 kts 77°
2026-04-22 19:50 33.94813 -118.41101 107 ft 11 kts 82°
2026-04-22 19:50 33.94823 -118.41012 107 ft 11 kts 83°
2026-04-22 19:51 33.94831 -118.40921 108 ft 11 kts 83°
2026-04-22 19:51 33.94840 -118.40832 105 ft 11 kts 83°
2026-04-22 19:51 33.94849 -118.40741 106 ft 11 kts 82°
2026-04-22 19:51 33.94860 -118.40651 105 ft 11 kts 82°
2026-04-22 19:52 33.94869 -118.40563 105 ft 11 kts 82°
2026-04-22 19:52 33.94879 -118.40473 107 ft 11 kts 83°
2026-04-22 19:52 33.94887 -118.40383 106 ft 11 kts 84°
2026-04-22 19:52 33.94896 -118.40293 105 ft 11 kts 83°
2026-04-22 19:53 33.94905 -118.40203 107 ft 11 kts 83°
2026-04-22 19:53 33.94914 -118.40113 105 ft 11 kts 83°
2026-04-22 19:53 33.94924 -118.40024 104 ft 11 kts 82°
2026-04-22 19:53 33.94957 -118.39945 107 ft 11 kts 42°
2026-04-22 19:54 33.95013 -118.39934 111 ft 8 kts 337°
2026-04-22 19:54 33.95031 -118.39981 109 ft 4 kts 273°
2026-04-22 19:54 33.95030 -118.40022 111 ft 19 kts 268°
2026-04-22 19:54 33.94980 -118.40517 109 ft 99 kts 262°
2026-04-22 19:55 33.94863 -118.41638 109 ft 169 kts 262°
2026-04-22 19:55 33.94681 -118.43175 544 ft 181 kts 264°
2026-04-22 19:55 33.94508 -118.44736 1198 ft 198 kts 259°
2026-04-22 19:55 33.94342 -118.46346 1986 ft 197 kts 264°
2026-04-22 19:56 33.94275 -118.48083 2214 ft 217 kts 268°
2026-04-22 19:56 33.94230 -118.49963 2591 ft 228 kts 268°
2026-04-22 19:56 33.94172 -118.51929 2981 ft 244 kts 265°
2026-04-22 19:56 33.94007 -118.54019 3495 ft 250 kts 264°
2026-04-22 19:57 33.93831 -118.56100 4258 ft 250 kts 265°
2026-04-22 19:57 33.93662 -118.58158 5005 ft 249 kts 266°
2026-04-22 19:57 33.93495 -118.60240 5645 ft 252 kts 266°
2026-04-22 19:57 33.93327 -118.62365 6216 ft 259 kts 266°
2026-04-22 19:58 33.93155 -118.64552 6778 ft 265 kts 266°
2026-04-22 19:58 33.92982 -118.66777 7388 ft 268 kts 266°
2026-04-22 19:58 33.92808 -118.69020 8079 ft 269 kts 266°
2026-04-22 19:58 33.92634 -118.71262 8771 ft 270 kts 266°
2026-04-22 19:59 33.92458 -118.73513 9459 ft 271 kts 266°
2026-04-22 20:00 33.91790 -118.88929 11604 ft 351 kts 274°
2026-04-22 20:00 33.91928 -118.91888 12263 ft 355 kts 273°
2026-04-22 20:01 33.92039 -118.94861 13025 ft 356 kts 272°
2026-04-22 20:01 33.92130 -118.97812 13796 ft 358 kts 272°
2026-04-22 20:01 33.92317 -119.00800 14408 ft 358 kts 281°
2026-04-22 20:01 33.93173 -119.03640 14968 ft 365 kts 297°
2026-04-22 20:02 33.94522 -119.06243 15687 ft 366 kts 300°
2026-04-22 20:02 33.95906 -119.08831 16391 ft 368 kts 300°
2026-04-22 20:02 33.97283 -119.11445 17060 ft 370 kts 299°
2026-04-22 20:02 33.98652 -119.14082 17713 ft 373 kts 298°
2026-04-22 20:03 34.00025 -119.16741 18348 ft 374 kts 299°
2026-04-22 20:03 34.01616 -119.19201 18810 ft 385 kts 312°
2026-04-22 20:03 34.03772 -119.21187 19250 ft 393 kts 320°
2026-04-22 20:03 34.06035 -119.23078 19726 ft 397 kts 320°
2026-04-22 20:04 34.08316 -119.24992 20253 ft 400 kts 319°
2026-04-22 20:04 34.10608 -119.26930 20767 ft 403 kts 319°
2026-04-22 20:04 34.12906 -119.28886 21286 ft 406 kts 319°
2026-04-22 20:04 34.15214 -119.30864 21784 ft 409 kts 318°
2026-04-22 20:05 34.17544 -119.32867 22271 ft 412 kts 318°
2026-04-22 20:05 34.19884 -119.34885 22766 ft 415 kts 318°
2026-04-22 20:05 34.22246 -119.36923 23245 ft 419 kts 318°
2026-04-22 20:05 34.24628 -119.38980 23731 ft 422 kts 318°
2026-04-22 20:06 34.27026 -119.41052 24135 ft 424 kts 318°
2026-04-22 20:06 34.29437 -119.43137 24548 ft 426 kts 318°
2026-04-22 20:06 34.31823 -119.45201 24979 ft 428 kts 317°
2026-04-22 20:06 34.34249 -119.47300 25416 ft 429 kts 317°
2026-04-22 20:07 34.36686 -119.49412 25812 ft 431 kts 317°
2026-04-22 20:07 34.39132 -119.51534 26182 ft 434 kts 317°
2026-04-22 20:07 34.41544 -119.53733 26558 ft 431 kts 312°
2026-04-22 20:07 34.43604 -119.56341 26889 ft 428 kts 305°
2026-04-22 20:08 34.45519 -119.59101 27272 ft 428 kts 304°
2026-04-22 20:08 34.47417 -119.61911 27644 ft 430 kts 304°
2026-04-22 20:08 34.49316 -119.64719 28022 ft 432 kts 304°
2026-04-22 20:08 34.51236 -119.67527 28358 ft 434 kts 304°
2026-04-22 20:09 34.53181 -119.70341 28676 ft 437 kts 304°
2026-04-22 20:09 34.55145 -119.73161 29013 ft 439 kts 305°
2026-04-22 20:09 34.57126 -119.75990 29366 ft 440 kts 305°
2026-04-22 20:09 34.59119 -119.78830 29711 ft 442 kts 305°
2026-04-22 20:10 34.61112 -119.81670 30004 ft 444 kts 305°
2026-04-22 20:10 34.63097 -119.84501 30113 ft 448 kts 305°
2026-04-22 20:10 34.65121 -119.87390 30180 ft 448 kts 305°
2026-04-22 20:11 34.69153 -119.93148 30188 ft 445 kts 305°
2026-04-22 20:11 34.73160 -119.98882 30196 ft 443 kts 305°
2026-04-22 20:12 34.77141 -120.04592 30189 ft 442 kts 304°
2026-04-22 20:12 34.80431 -120.09318 30214 ft 440 kts 304°
2026-04-22 20:13 34.85067 -120.15996 30227 ft 444 kts 304°
2026-04-22 20:13 34.89071 -120.21770 30251 ft 447 kts 304°
2026-04-22 20:14 34.93056 -120.27524 30247 ft 446 kts 304°
2026-04-22 20:14 34.97053 -120.33301 30241 ft 444 kts 304°
2026-04-22 20:15 35.01020 -120.39046 30228 ft 442 kts 304°
2026-04-22 20:15 35.04967 -120.44775 30250 ft 439 kts 304°
2026-04-22 20:16 35.08880 -120.50462 30239 ft 438 kts 304°
2026-04-22 20:16 35.12787 -120.56153 30240 ft 437 kts 304°
2026-04-22 20:17 35.16690 -120.61846 30235 ft 437 kts 304°
2026-04-22 20:17 35.20593 -120.67547 30237 ft 437 kts 304°
2026-04-22 20:18 35.24490 -120.73250 30230 ft 436 kts 304°
2026-04-22 20:18 35.28378 -120.78949 30250 ft 436 kts 304°
2026-04-22 20:19 35.32247 -120.84628 30254 ft 436 kts 303°
2026-04-22 20:19 35.36132 -120.90341 30259 ft 436 kts 303°
2026-04-22 20:20 35.40007 -120.96048 30271 ft 435 kts 303°
2026-04-22 20:20 35.43878 -121.01760 30281 ft 435 kts 303°
2026-04-22 20:21 35.47736 -121.07461 30278 ft 434 kts 303°
2026-04-22 20:21 35.50971 -121.12179 30282 ft 434 kts 304°
2026-04-22 20:22 35.55539 -121.18720 30287 ft 434 kts 304°
2026-04-22 20:22 35.58813 -121.23418 30707 ft 433 kts 304°
2026-04-22 20:22 35.60765 -121.26224 31083 ft 429 kts 304°
2026-04-22 20:23 35.62700 -121.29011 31453 ft 427 kts 304°
2026-04-22 20:23 35.64622 -121.31785 31773 ft 425 kts 303°
2026-04-22 20:23 35.66538 -121.34556 32047 ft 424 kts 303°
2026-04-22 20:23 35.68449 -121.37322 32192 ft 425 kts 303°
2026-04-22 20:24 35.70363 -121.40096 32233 ft 426 kts 303°
2026-04-22 20:24 35.74189 -121.45642 32267 ft 423 kts 303°
2026-04-22 20:25 35.77968 -121.51127 32277 ft 421 kts 303°
2026-04-22 20:25 35.81745 -121.56621 32276 ft 420 kts 303°
2026-04-22 20:26 35.85524 -121.62128 32277 ft 420 kts 303°
2026-04-22 20:26 35.89299 -121.67636 32274 ft 421 kts 303°
2026-04-22 20:27 35.93079 -121.73161 32280 ft 421 kts 303°
2026-04-22 20:27 35.96879 -121.78680 32280 ft 424 kts 306°
2026-04-22 20:28 36.01408 -121.83540 32282 ft 436 kts 315°
2026-04-22 20:28 36.06571 -121.87539 32280 ft 447 kts 323°
2026-04-22 20:29 36.12133 -121.90985 32278 ft 447 kts 324°
2026-04-22 20:29 36.17699 -121.94394 32270 ft 445 kts 323°
2026-04-22 20:30 36.23233 -121.97829 32276 ft 443 kts 323°
2026-04-22 20:30 36.28723 -122.01272 32275 ft 442 kts 323°
2026-04-22 20:31 36.34175 -122.04702 32277 ft 441 kts 323°
2026-04-22 20:31 36.39645 -122.08150 32280 ft 440 kts 323°
2026-04-22 20:32 36.45108 -122.11598 32280 ft 440 kts 323°
2026-04-22 20:32 36.50569 -122.15049 32281 ft 440 kts 323°
2026-04-22 20:33 36.56030 -122.18505 32278 ft 440 kts 323°
2026-04-22 20:33 36.61486 -122.21964 32284 ft 440 kts 323°
2026-04-22 20:34 36.66915 -122.25411 32279 ft 440 kts 323°
2026-04-22 20:34 36.72377 -122.28885 32276 ft 441 kts 323°
2026-04-22 20:35 36.77840 -122.32365 32277 ft 441 kts 323°
2026-04-22 20:35 36.83310 -122.35855 32271 ft 442 kts 323°
2026-04-22 20:36 36.88787 -122.39355 32271 ft 442 kts 323°
2026-04-22 20:36 36.94242 -122.42846 32263 ft 443 kts 323°
2026-04-22 20:37 36.99735 -122.46367 32248 ft 443 kts 323°
2026-04-22 20:37 37.05226 -122.49893 32247 ft 443 kts 323°
2026-04-22 20:38 37.10680 -122.53401 32254 ft 443 kts 324°
2026-04-22 20:38 37.16171 -122.56939 32254 ft 444 kts 324°
2026-04-22 20:39 37.21666 -122.60485 32253 ft 444 kts 324°
2026-04-22 20:39 37.27156 -122.64034 32253 ft 444 kts 324°
2026-04-22 20:40 37.32764 -122.67399 32248 ft 451 kts 329°
2026-04-22 20:40 37.38572 -122.70271 32254 ft 451 kts 330°
2026-04-22 20:41 37.44422 -122.73153 32247 ft 451 kts 330°
2026-04-22 20:41 37.50259 -122.76056 32249 ft 451 kts 329°
2026-04-22 20:42 37.56088 -122.78975 32245 ft 451 kts 330°
2026-04-22 20:42 37.61915 -122.81899 32243 ft 450 kts 330°
2026-04-22 20:43 37.67735 -122.84825 32240 ft 450 kts 330°
2026-04-22 20:43 37.73551 -122.87753 32235 ft 450 kts 330°
2026-04-22 20:44 37.79372 -122.90689 32228 ft 450 kts 330°
2026-04-22 20:44 37.85195 -122.93630 32232 ft 450 kts 330°
2026-04-22 20:45 37.90972 -122.96553 32232 ft 450 kts 330°
2026-04-22 20:45 37.96791 -122.99503 32231 ft 450 kts 330°
2026-04-22 20:46 38.05508 -123.03931 32229 ft 450 kts 330°
2026-04-22 20:46 38.11327 -123.06894 32228 ft 450 kts 330°
2026-04-22 20:47 38.17132 -123.09854 32227 ft 449 kts 330°
2026-04-22 20:47 38.22874 -123.12946 32236 ft 443 kts 326°
2026-04-22 20:48 38.28099 -123.16923 32239 ft 437 kts 320°
2026-04-22 20:48 38.33233 -123.21068 32233 ft 437 kts 320°
2026-04-22 20:49 38.38343 -123.25172 32226 ft 436 kts 321°
2026-04-22 20:49 38.43483 -123.29290 32235 ft 436 kts 321°
2026-04-22 20:50 38.48623 -123.33410 32227 ft 436 kts 321°
2026-04-22 20:50 38.53758 -123.37534 32230 ft 435 kts 321°
2026-04-22 20:51 38.58877 -123.41652 32225 ft 435 kts 321°
2026-04-22 20:51 38.64001 -123.45781 32226 ft 434 kts 321°
2026-04-22 20:52 38.69084 -123.49885 32226 ft 434 kts 321°
2026-04-22 20:52 38.74191 -123.54015 32228 ft 434 kts 321°
2026-04-22 20:53 38.79290 -123.58146 32233 ft 433 kts 321°
2026-04-22 20:53 38.84390 -123.62286 32234 ft 434 kts 321°
2026-04-22 20:54 38.89487 -123.66429 32238 ft 434 kts 321°
2026-04-22 20:54 38.94564 -123.70564 32236 ft 433 kts 321°
2026-04-22 20:55 38.99652 -123.74728 32238 ft 432 kts 320°
2026-04-22 20:55 39.04449 -123.79314 32254 ft 428 kts 316°
2026-04-22 20:56 39.09172 -123.84004 32238 ft 429 kts 316°
2026-04-22 20:56 39.13893 -123.88691 32245 ft 429 kts 317°
2026-04-22 20:57 39.18631 -123.93388 32251 ft 429 kts 317°
2026-04-22 20:57 39.23340 -123.98057 32247 ft 430 kts 317°
2026-04-22 20:58 39.28086 -124.02771 32252 ft 430 kts 317°
2026-04-22 20:58 39.32831 -124.07492 32253 ft 431 kts 317°
2026-04-22 20:59 39.37580 -124.12225 32253 ft 431 kts 317°
2026-04-22 20:59 39.42332 -124.16970 32254 ft 431 kts 317°
2026-04-22 21:00 39.47075 -124.21714 32250 ft 431 kts 317°
2026-04-22 21:00 39.51786 -124.26434 32252 ft 431 kts 317°
2026-04-22 21:01 39.56540 -124.31206 32258 ft 430 kts 317°
2026-04-22 21:01 39.61271 -124.35964 32256 ft 430 kts 317°
2026-04-22 21:02 39.65999 -124.40727 32259 ft 430 kts 317°
2026-04-22 21:02 39.70729 -124.45500 32258 ft 430 kts 317°
2026-04-22 21:03 39.75418 -124.50240 32264 ft 430 kts 317°
2026-04-22 21:03 39.80136 -124.55019 32263 ft 430 kts 317°
2026-04-22 21:04 39.84850 -124.59802 32257 ft 429 kts 317°
2026-04-22 21:04 39.89562 -124.64591 32263 ft 429 kts 318°
2026-04-22 21:05 39.94237 -124.69351 32268 ft 429 kts 318°
2026-04-22 21:05 39.98945 -124.74153 32265 ft 429 kts 318°
2026-04-22 21:06 40.03650 -124.78962 32265 ft 429 kts 318°
2026-04-22 21:06 40.08353 -124.83777 32270 ft 430 kts 318°
2026-04-22 21:07 40.13056 -124.88600 32270 ft 430 kts 318°
2026-04-22 21:07 40.17765 -124.93439 32271 ft 430 kts 318°
2026-04-22 21:08 40.22438 -124.98248 32271 ft 431 kts 318°
2026-04-22 21:08 40.27150 -125.03107 32273 ft 431 kts 318°
2026-04-22 21:09 40.31862 -125.07975 32273 ft 431 kts 318°
2026-04-22 21:09 40.36573 -125.12850 32272 ft 431 kts 318°
2026-04-22 21:10 40.41284 -125.17735 32274 ft 432 kts 318°
2026-04-22 21:10 40.45998 -125.22632 32277 ft 432 kts 318°
2026-04-22 21:11 40.49918 -125.26711 32277 ft 433 kts 318°
2026-04-22 21:11 40.55407 -125.32433 32278 ft 433 kts 318°
2026-04-22 21:12 40.59366 -125.36568 32274 ft 434 kts 318°
2026-04-22 21:12 40.64068 -125.41486 32276 ft 434 kts 318°
2026-04-22 21:13 40.68800 -125.46445 32277 ft 435 kts 318°
2026-04-22 21:13 40.73540 -125.51423 32281 ft 436 kts 318°
2026-04-22 21:14 40.78285 -125.56415 32286 ft 437 kts 318°
2026-04-22 21:14 40.83041 -125.61428 32283 ft 438 kts 318°
2026-04-22 21:15 40.87805 -125.66459 32281 ft 439 kts 318°
2026-04-22 21:15 40.92549 -125.71479 32282 ft 440 kts 319°
2026-04-22 21:16 40.97333 -125.76549 32281 ft 441 kts 319°
2026-04-22 21:16 41.02122 -125.81635 32280 ft 442 kts 319°
2026-04-22 21:17 41.06926 -125.86747 32282 ft 443 kts 319°
2026-04-22 21:17 41.11731 -125.91871 32286 ft 444 kts 319°
2026-04-22 21:18 41.16552 -125.97021 32282 ft 446 kts 319°
2026-04-22 21:18 41.21391 -126.02201 32285 ft 447 kts 319°
2026-04-22 21:19 41.26246 -126.07407 32285 ft 449 kts 319°
2026-04-22 21:19 41.31088 -126.12611 32285 ft 451 kts 319°
2026-04-22 21:20 41.35980 -126.17878 32281 ft 453 kts 319°
2026-04-22 21:20 41.40892 -126.23177 32285 ft 455 kts 320°
2026-04-22 21:21 41.45825 -126.28510 32286 ft 457 kts 320°
2026-04-22 21:21 41.50768 -126.33865 32288 ft 459 kts 320°
2026-04-22 21:22 41.55727 -126.39247 32279 ft 460 kts 320°
2026-04-22 21:22 41.60705 -126.44662 32279 ft 462 kts 320°
2026-04-22 21:23 41.65649 -126.50093 32285 ft 464 kts 318°
2026-04-22 21:23 41.70258 -126.56174 32286 ft 466 kts 314°
2026-04-22 21:24 41.74803 -126.62397 32280 ft 468 kts 314°
2026-04-22 21:24 41.79383 -126.68625 32280 ft 469 kts 315°
2026-04-22 21:25 41.83981 -126.74863 32281 ft 471 kts 315°
2026-04-22 21:25 41.88559 -126.81087 32278 ft 472 kts 315°
2026-04-22 21:26 41.93172 -126.87365 32282 ft 472 kts 315°
2026-04-22 21:26 41.97789 -126.93650 32279 ft 473 kts 315°
2026-04-22 21:27 42.02410 -126.99956 32273 ft 473 kts 315°
2026-04-22 21:27 42.07029 -127.06276 32275 ft 474 kts 315°
2026-04-22 21:28 42.11651 -127.12615 32276 ft 474 kts 315°
2026-04-22 21:28 42.16282 -127.18981 32274 ft 475 kts 315°
2026-04-22 21:29 42.20903 -127.25346 32277 ft 475 kts 315°
2026-04-22 21:29 42.25509 -127.31705 32274 ft 476 kts 315°
2026-04-22 21:30 42.30134 -127.38105 32277 ft 476 kts 315°
2026-04-22 21:30 42.34758 -127.44517 32275 ft 476 kts 315°
2026-04-22 21:31 42.39382 -127.50943 32273 ft 476 kts 315°
2026-04-22 21:31 42.43999 -127.57375 32278 ft 476 kts 315°
2026-04-22 21:32 42.48601 -127.63800 32276 ft 475 kts 315°
2026-04-22 21:32 42.53172 -127.70197 32278 ft 475 kts 315°
2026-04-22 21:33 42.57767 -127.76641 32277 ft 475 kts 315°
2026-04-22 21:33 42.62356 -127.83092 32277 ft 474 kts 315°
2026-04-22 21:34 42.66939 -127.89547 32272 ft 474 kts 315°
2026-04-22 21:34 42.71506 -127.95996 32277 ft 473 kts 315°
2026-04-22 21:35 42.76071 -128.02457 32274 ft 473 kts 315°
2026-04-22 21:35 42.80629 -128.08921 32273 ft 472 kts 315°
2026-04-22 21:36 42.85167 -128.15374 32277 ft 471 kts 315°
2026-04-22 21:36 42.89702 -128.21835 32283 ft 471 kts 314°
2026-04-22 21:37 42.94226 -128.28295 32275 ft 470 kts 314°
2026-04-22 21:37 42.98735 -128.34750 32286 ft 469 kts 314°
2026-04-22 21:38 43.03198 -128.41152 32283 ft 468 kts 314°
2026-04-22 21:38 43.07687 -128.47607 32283 ft 467 kts 314°
2026-04-22 21:39 43.12151 -128.54041 32286 ft 465 kts 314°
2026-04-22 21:39 43.16605 -128.60474 32293 ft 464 kts 314°
2026-04-22 21:40 43.21021 -128.66867 32294 ft 464 kts 314°
2026-04-22 21:40 43.25456 -128.73301 32297 ft 464 kts 313°
2026-04-22 21:41 43.29894 -128.79755 32300 ft 465 kts 313°
2026-04-22 21:41 43.34330 -128.86221 32300 ft 465 kts 313°
2026-04-22 21:42 43.38765 -128.92699 32302 ft 465 kts 313°
2026-04-22 21:42 43.43198 -128.99191 32304 ft 465 kts 313°
2026-04-22 21:43 43.47592 -129.05641 32304 ft 465 kts 313°
2026-04-22 21:43 43.52014 -129.12144 32306 ft 465 kts 313°
2026-04-22 21:44 43.56434 -129.18662 32307 ft 465 kts 313°
2026-04-22 21:44 43.60850 -129.25187 32311 ft 465 kts 313°
2026-04-22 21:45 43.65254 -129.31710 32312 ft 465 kts 313°
2026-04-22 21:45 43.69660 -129.38251 32316 ft 464 kts 313°
2026-04-22 21:46 43.74057 -129.44795 32315 ft 464 kts 313°
2026-04-22 21:46 43.78450 -129.51347 32318 ft 464 kts 313°
2026-04-22 21:47 43.82838 -129.57908 32318 ft 464 kts 313°
2026-04-22 21:47 43.87199 -129.64442 32323 ft 464 kts 312°
2026-04-22 21:48 43.91576 -129.71016 32322 ft 464 kts 312°
2026-04-22 21:48 43.95963 -129.77621 32327 ft 464 kts 312°